FIN22 EFHK-EFRO

Flight info

Callsign FIN22
Flight time 0h 24m
Altitude 40000
Route TEVRU Y75 NEPIX
Aircraft MD11/H-SDE1E2E3FGHIJ2J3J4J5M1RWXY/LB1D1

Departure

Time 2026-04-20 03:02
Airport Helsinki Vantaa Airport (EFHK)

Arrival

Time 2026-04-20 03:26
Airport Rovaniemi Airport (EFRO)
Time Latitude Longitude Altitude Speed Heading
2026-04-20 02:39 60.31466 24.95609 168 ft 0 kts 135°
2026-04-20 02:54 60.31481 24.95580 168 ft 4 kts 136°
2026-04-20 02:54 60.31499 24.95544 168 ft 2 kts 136°
2026-04-20 02:54 60.31517 24.95522 167 ft 4 kts 191°
2026-04-20 02:54 60.31540 24.95545 167 ft 4 kts 224°
2026-04-20 02:55 60.31545 24.95556 167 ft 0 kts 227°
2026-04-20 02:56 60.31543 24.95552 167 ft 2 kts 227°
2026-04-20 02:57 60.31524 24.95509 167 ft 2 kts 230°
2026-04-20 02:57 60.31524 24.95508 167 ft 0 kts 231°
2026-04-20 02:57 60.31495 24.95442 167 ft 12 kts 228°
2026-04-20 02:57 60.31464 24.95294 166 ft 12 kts 276°
2026-04-20 02:58 60.31490 24.95196 165 ft 8 kts 309°
2026-04-20 02:58 60.31506 24.95098 164 ft 8 kts 266°
2026-04-20 02:58 60.31475 24.94970 163 ft 11 kts 233°
2026-04-20 02:58 60.31419 24.94836 162 ft 15 kts 228°
2026-04-20 02:59 60.31350 24.94681 161 ft 15 kts 228°
2026-04-20 02:59 60.31275 24.94513 160 ft 17 kts 226°
2026-04-20 02:59 60.31195 24.94345 159 ft 17 kts 229°
2026-04-20 02:59 60.31113 24.94165 158 ft 18 kts 223°
2026-04-20 03:00 60.31042 24.93967 157 ft 17 kts 257°
2026-04-20 03:00 60.31096 24.93794 156 ft 15 kts 333°
2026-04-20 03:00 60.31196 24.93801 156 ft 13 kts 32°
2026-04-20 03:00 60.31230 24.93865 156 ft 8 kts 46°
2026-04-20 03:01 60.31361 24.94148 159 ft 51 kts 47°
2026-04-20 03:01 60.31737 24.94973 165 ft 106 kts 47°
2026-04-20 03:01 60.32334 24.96298 211 ft 143 kts 46°
2026-04-20 03:01 60.33040 24.97857 524 ft 159 kts 46°
2026-04-20 03:02 60.33771 24.99452 1298 ft 152 kts 48°
2026-04-20 03:02 60.34496 25.01046 2166 ft 153 kts 49°
2026-04-20 03:02 60.35191 25.02583 3577 ft 162 kts 48°
2026-04-20 03:02 60.36063 25.04518 4096 ft 213 kts 48°
2026-04-20 03:03 60.37154 25.06936 4547 ft 241 kts 48°
2026-04-20 03:03 60.38292 25.09444 5566 ft 243 kts 46°
2026-04-20 03:03 60.39595 25.11621 6502 ft 246 kts 31°
2026-04-20 03:03 60.41224 25.12704 7365 ft 251 kts 11°
2026-04-20 03:04 60.42982 25.12958 8166 ft 255 kts
2026-04-20 03:04 60.44763 25.13031 8967 ft 258 kts
2026-04-20 03:04 60.53612 25.12021 11585 ft 307 kts 343°
2026-04-20 03:04 60.63786 25.00485 14695 ft 350 kts 337°
2026-04-20 03:05 60.77803 24.86635 22805 ft 315 kts 340°
2026-04-20 03:05 60.81437 24.83440 22801 ft 359 kts 349°
2026-04-20 03:05 60.83939 24.82723 22962 ft 371 kts
2026-04-20 03:05 60.95505 24.85350 25640 ft 390 kts 11°
2026-04-20 03:06 61.15317 24.90234 33046 ft 327 kts 12°
2026-04-20 03:06 61.37571 24.95781 33144 ft 447 kts 11°
2026-04-20 03:06 61.60935 25.01507 37985 ft 414 kts
2026-04-20 03:06 61.85511 25.02427 39690 ft 443 kts
2026-04-20 03:07 62.07426 25.03270 40209 ft 436 kts
2026-04-20 03:07 62.30534 25.04179 40108 ft 451 kts
2026-04-20 03:08 62.80565 25.06114 40240 ft 452 kts
2026-04-20 03:08 63.04933 25.07072 40569 ft 407 kts
2026-04-20 03:08 63.10000 25.07280 40220 ft 431 kts
2026-04-20 03:08 63.13820 25.07454 40098 ft 444 kts
2026-04-20 03:09 63.26360 25.07973 40062 ft 452 kts
2026-04-20 03:09 63.51365 25.08990 40065 ft 452 kts
2026-04-20 03:10 63.76520 25.10028 40060 ft 451 kts
2026-04-20 03:10 64.01654 25.11082 40065 ft 451 kts
2026-04-20 03:11 64.26814 25.12153 40052 ft 451 kts
2026-04-20 03:11 64.51916 25.12896 40071 ft 451 kts
2026-04-20 03:12 64.77062 25.12876 40064 ft 451 kts
2026-04-20 03:12 64.91264 25.12881 40061 ft 451 kts
2026-04-20 03:13 64.97549 25.12884 39801 ft 452 kts
2026-04-20 03:13 65.00622 25.12885 39415 ft 452 kts
2026-04-20 03:13 65.03837 25.12885 38895 ft 451 kts
2026-04-20 03:13 65.06975 25.12885 38278 ft 449 kts
2026-04-20 03:14 65.10104 25.12884 37726 ft 449 kts
2026-04-20 03:14 65.13317 25.12885 37189 ft 448 kts
2026-04-20 03:14 65.19536 25.12866 36109 ft 446 kts
2026-04-20 03:14 65.25655 25.12836 35041 ft 444 kts
2026-04-20 03:15 65.31819 25.12807 33891 ft 442 kts
2026-04-20 03:15 65.37991 25.12787 32775 ft 446 kts
2026-04-20 03:15 65.44229 25.12761 31674 ft 450 kts
2026-04-20 03:15 65.51418 25.12724 30255 ft 451 kts
2026-04-20 03:16 65.63843 25.12641 27585 ft 437 kts
2026-04-20 03:16 65.75789 25.12575 25190 ft 422 kts
2026-04-20 03:16 65.87350 25.12512 22735 ft 407 kts
2026-04-20 03:16 65.98481 25.12453 20472 ft 394 kts
2026-04-20 03:17 66.09284 25.12399 18231 ft 381 kts
2026-04-20 03:17 66.19382 25.18407 16012 ft 370 kts 18°
2026-04-20 03:17 66.29125 25.25804 13836 ft 361 kts 17°
2026-04-20 03:17 66.34685 25.29952 12634 ft 355 kts 17°
2026-04-20 03:18 66.37298 25.31902 12084 ft 352 kts 17°
2026-04-20 03:18 66.46415 25.38800 10794 ft 320 kts 21°
2026-04-20 03:18 66.52997 25.50095 10354 ft 274 kts 37°
2026-04-20 03:18 66.58978 25.61448 8484 ft 272 kts 36°
2026-04-20 03:19 66.65031 25.73010 6748 ft 264 kts 36°
2026-04-20 03:19 66.67833 25.78379 5969 ft 260 kts 36°
2026-04-20 03:19 66.69273 25.81141 5606 ft 259 kts 36°
2026-04-20 03:19 66.70700 25.83882 5250 ft 257 kts 36°
2026-04-20 03:20 66.72120 25.86612 4878 ft 256 kts 36°
2026-04-20 03:20 66.73395 25.89670 4608 ft 253 kts 51°
2026-04-20 03:20 66.74124 25.93667 4230 ft 253 kts 78°
2026-04-20 03:20 66.74007 25.97981 3880 ft 241 kts 109°
2026-04-20 03:21 66.73214 26.01471 3847 ft 228 kts 125°
2026-04-20 03:21 66.72200 26.04478 3824 ft 225 kts 140°
2026-04-20 03:21 66.70857 26.06337 3782 ft 217 kts 166°
2026-04-20 03:21 66.69394 26.06468 3796 ft 208 kts 194°
2026-04-20 03:22 66.68081 26.04956 3738 ft 210 kts 213°
2026-04-20 03:22 66.66899 26.03009 3292 ft 191 kts 216°
2026-04-20 03:22 66.65899 26.01132 2812 ft 170 kts 219°
2026-04-20 03:22 66.64998 25.99385 2555 ft 157 kts 218°
2026-04-20 03:23 66.64139 25.97725 2344 ft 156 kts 219°
2026-04-20 03:23 66.63284 25.96077 2130 ft 154 kts 219°
2026-04-20 03:23 66.62433 25.94439 1919 ft 151 kts 219°
2026-04-20 03:23 66.61638 25.92911 1666 ft 142 kts 218°
2026-04-20 03:24 66.60853 25.91405 1509 ft 142 kts 218°
2026-04-20 03:24 66.60074 25.89899 1297 ft 140 kts 218°
2026-04-20 03:24 66.59300 25.88424 1087 ft 139 kts 218°
2026-04-20 03:24 66.58791 25.87446 959 ft 138 kts 218°
2026-04-20 03:25 66.58021 25.85970 791 ft 138 kts 217°
2026-04-20 03:25 66.57266 25.84535 651 ft 129 kts 218°
2026-04-20 03:25 66.56638 25.83330 648 ft 97 kts 217°
2026-04-20 03:25 66.56184 25.82446 655 ft 66 kts 213°
2026-04-20 03:26 66.55942 25.82256 656 ft 26 kts 153°
2026-04-20 03:26 66.55898 25.82422 659 ft 2 kts 106°
2026-04-20 03:26 66.55889 25.82458 660 ft 4 kts 124°
2026-04-20 03:26 66.55869 25.82513 659 ft 5 kts 134°
2026-04-20 03:27 66.55847 25.82565 661 ft 3 kts 137°
2026-04-20 03:27 66.55834 25.82593 661 ft 3 kts 139°
2026-04-20 03:27 60.31208 24.93820 659 ft 0 kts 39°
2026-04-20 03:27 60.31238 24.93883 156 ft 13 kts 47°
2026-04-20 03:28 60.31404 24.94242 160 ft 60 kts 47°
2026-04-20 03:28 60.31822 24.95160 166 ft 114 kts 47°
2026-04-20 03:28 60.32769 24.97265 387 ft 151 kts 45°
2026-04-20 03:29 60.32056 24.95672 169 ft 130 kts 47°
2026-04-20 03:29 60.31484 24.94417 159 ft 76 kts 46°
2026-04-20 03:29 60.31900 24.95332 166 ft 120 kts 47°
2026-04-20 03:29 60.32539 24.96757 280 ft 147 kts 45°
2026-04-20 03:30 60.33264 24.98347 689 ft 158 kts 46°
2026-04-20 03:30 63.75893 25.10002 38467 ft 451 kts
2026-04-20 03:30 66.60489 25.90707 1423 ft 141 kts 219°
2026-04-20 03:30 66.57768 25.85494 729 ft 137 kts 218°
2026-04-20 03:31 66.58261 25.86424 833 ft 138 kts 218°
2026-04-20 03:31 66.57741 25.85443 724 ft 137 kts 218°
2026-04-20 03:31 66.57159 25.84327 650 ft 124 kts 217°
2026-04-20 03:31 66.58103 25.86125 810 ft 138 kts 217°
2026-04-20 03:32 66.57345 25.84685 649 ft 133 kts 218°
2026-04-20 03:32 66.56698 25.83441 650 ft 101 kts 217°
2026-04-20 03:32 66.57793 25.85540 732 ft 138 kts 218°
2026-04-20 03:32 66.57060 25.84137 647 ft 120 kts 218°
2026-04-20 03:33 66.59138 25.88115 1053 ft 139 kts 218°
2026-04-20 03:33 66.57410 25.84809 656 ft 135 kts 218°
2026-04-20 03:33 66.56750 25.83539 651 ft 104 kts 217°
2026-04-20 03:33 66.58714 25.87297 946 ft 138 kts 218°
2026-04-20 03:34 66.57950 25.85838 774 ft 138 kts 217°
2026-04-20 03:34 66.57200 25.84408 649 ft 126 kts 218°
2026-04-20 03:34 66.56589 25.83237 648 ft 94 kts 217°
2026-04-20 03:34 63.43383 25.08664 38459 ft 450 kts
2026-04-20 03:35 60.31221 24.93846 156 ft 8 kts 45°
2026-04-20 03:35 60.31272 24.93954 157 ft 27 kts 46°
2026-04-20 03:35 60.31519 24.94493 159 ft 81 kts 47°
2026-04-20 03:35 60.32020 24.95593 168 ft 128 kts 47°
2026-04-20 03:36 60.32682 24.97075 338 ft 150 kts 46°
2026-04-20 03:36 66.55888 25.82459 652 ft 3 kts 124°